Location: McLaughlin
(0.0000°N, 0.0000°E)
Time: 05:41:03
(UTC+00:00)

Hubble Space Telescope - Pass Details

Date: 21 June 2019
Orbit: 536 x 540 km, 28.5° (Epoch: 18 July)

Event Time Altitude Azimuth Distance (km) Brightness Sun altitude
Rises 20:13:16 0° 269° (W) 2,676 5.2 -29.9°
Reaches altitude 10° 20:16:08 10° 289° (WNW) 1,783 4.3 -30.5°
Maximum altitude 20:18:55 17° 332° (NNW) 1,375 3.4 -31.1°
Enters shadow 20:19:20 17° 339° (NNW) 1,385 3.3 -31.2°
